Location: Staunton
(38.1490°N, 79.0720°W)
Time: 19:54:02
(UTC-04:00)

ISS - Pass Details

Date: 03 August 2020
Orbit: 418 x 420 km, 51.6° (Epoch: 15 August)

Event Time Altitude Azimuth Distance (km) Brightness Sun altitude
Rises 22:12:41 0° 296° (WNW) 2,367 1.5 -19.0°
Reaches altitude 10° 22:15:08 10° 279° (W) 1,499 -0.2 -19.4°
Maximum altitude 22:17:41 20° 229° (SW) 1,025 -1.8 -19.8°
Enters shadow 22:18:03 20° 220° (SW) 1,036 -1.8 -19.8°
